Showing default

ZHUHAI-1 03A, 44534

Orbit data source: Space-Track

ZHUHAI-1 03A, 44534 is a payload satellite owned by Zhuhai Orbita (CN) in SSO that was launched on Thu, 19 Sep 2019 UTC via a CHANG ZHENG 11 launch vehicle from the Jiuquan Satellite Launch Center, China (JSC). Payload-class satellites include a variety of spacecraft equipped with specific instruments for various scientific and technological missions. These include communications satellites like Starlink; space stations such as the ISS; scientific satellites like the Hubble; Earth observation satellites from companies like Planet Labs, Umbra, and HawkEye 360; GPS; miniature CubeSats for education and research; and military/defense satellites.

Loading next visibility...
Identifier
44534, 2019-060A
Orbit
SSO
Last TLE update
4 hours ago
Origin
Manufacturer
Harbin
Mission
Operational Commercial Imaging
Bus & Motor
OHS-1, Unknown motor
Mass
69 kg wet, ~69 kg dry
Launch date (UTC)
2019-09-19 (6 years ago)
Launch vehicle
CHANG ZHENG 11
Launch site
Jiuquan Satellite Launch Center, China (JSC)
Object type
Payload
Rocket body
Debris
Shape & HBR
Box, Unknown HBR
Radar Cross Section
0.280 m², Medium (>0.1 m² and < 1m²)

Expand to show TLE details & history

TLE from 4 hours ago
0 ZHUHAI-1 03A
1 44534U 19060A   25186.61501601  .00167902  00000-0  75451-3 0  9998
2 44534  97.5213 335.7114 0002697  91.3345 268.8233 15.83654656323405
Epoch: 2025-07-05T14:45Z
TLE epoch observation values (Epoch: 2025-07-05T14:45:37.383Z)
Latitude
-0.00002°
Longitude
-169.54488°
Altitude
323.326 km
Speed
7.714 km/s
True Right ascension
22h 22m 50s
True Declination
0° 00' 00"
Sunlit
Object was in full shadow at epoch
Visualization orbit readout
Latitude
30.7286°
Longitude
15.09834°
Altitude
323.093 km
Speed
7.718 km/s
Apparent Right ascension
14h 02m 06s
Apparent Declination
-6° 33' 35"
Sunlit
Object is in daylight
Visualization observer readout
Local Sidereal Time
06:20:45
Azimuth
78.346° E
Elevation
-23.54°
Doppler factor
1
Orbital elements
Apogee altitude
318.808 km
Perigee altitude
315.197 km
Semi-major axis
6,695.139 km
Eccentricity
0.00027
Inclination
97.5213°
RAAN
335.7114°
Arg. of periapsis
91.3345°
True anomaly
Unknown
Mean anomaly
268.8233°
Eccentric anomaly
Unknown
Mean motion
3.9619 °/min
Orbital period
90.87 mins
BSTAR
0.00075451
Loading maneuver chart data...
Loading SW <> Apogee altitude chart data...
Loading historical data...
Loading historical data...
Loading historical data...
Loading historical data...
Loading historical data...
Loading historical data...
Loading historical data...

ZHUHAI-1 03A Visibility forecast

Observer location: undefined°, undefined°

Span
Click to sort rows by Start time (UTC) header in descending order
Start Az.
Max El. time (UTC)
Max El. Az.
Max El.
End time (UTC)
End Az.
4 mins2025-07-05 22:54:13.316Z8.493° NNE2025-07-05 22:56:13.316Z207.645° SW39.777°2025-07-05 22:58:13.316Z195.935° SSW
|